{"data":{"norad_id":60936,"intl_designator":"2024-155N","name":"STARLINK-11241 [DTC]","alt_names":[],"object_type":"PAYLOAD","status":"ACTIVE","operator":null,"country":"US","launch_date":"2024-08-31","launch_site_code":"AFWTR","launch_vehicle":null,"mission":null,"orbit_class":"UNKNOWN","rcs_meters":null,"size_class":null,"mass_kg":null,"dimensions":null,"purposes":["comms"],"wikipedia_slug":null,"has_3d_model":false,"image_url":null,"decayed_at":null,"tle_current":{"epoch":"2026-05-24T19:17:37.270176Z","epoch_age_seconds":85846,"freshness":"FRESH","line1":"1 60936U 24155N   26144.80390359  .00001211  00000+0  14853-4 0  9994","line2":"2 60936  53.1596 326.2786 0000871  56.2370 303.8730 15.69700273100351","mean_motion":15.69700273,"eccentricity":8.71e-5,"inclination_deg":53.1596,"raan_deg":326.2786,"arg_perigee_deg":56.237,"mean_anomaly_deg":303.873,"bstar":1.4853e-5,"rev_number":10035,"period_min":91.737258683652,"perigee_km":359.16771515712,"apogee_km":360.34145587132,"semimajor_km":6737.8915855142,"source":"CELESTRAK","updated_at":"2026-05-25T13:38:19.319858Z"}}}